Tracking 35274 objects as of 10-Sep-2026
HD Live streaming from Space Station
objects crossing your sky now

PSLV DEB


PSLV DEB is no longer on orbit


NORAD ID: 27304
Int'l Code: 2001-049KA
Launch date: October 22, 2001
Source: India (IND)
Launch site: SRIHARIKOTA (SRI)
Decay date: 2002-03-25

Note: This is SATELLITE DEBRIS
Your satellite tracking list
Your tracking list is empty




NASA's NSSDC Master Catalog

Two Line Element Set (TLE):
1 27304U 01049KA  02080.15359429 +.02743697 +00000-0 +27549-1 0  9994
2 27304 097.7896 159.3476 0004849 117.2995 242.8758 15.62172967012890
Source of the keplerian elements: AFSPC